This is the latest recevied weather packets stored in our database for station/object K8JMX-13. If no packets are shown the sender has not sent any weather packets the latest 10 day(s).
| Time | Temp. | Humidity | Pressure | Rain* | Wind** | Luminosity | Snow |
|---|---|---|---|---|---|---|---|
| 1777906454 | 16.67° C | 56% | 1008.1 hPa | 0 mm | - | 64 W/m² | - |
| 1777906151 | 16.67° C | 57% | 1008 hPa | 0 mm | - | 79 W/m² | - |
| 1777905848 | 16.67° C | 56% | 1008 hPa | 0 mm | - | 66 W/m² | - |
| 1777905545 | 16.67° C | 56% | 1008 hPa | 0 mm | - | 79 W/m² | - |
| 1777905242 | 16.11° C | 55% | 1008 hPa | 0 mm | - | 73 W/m² | - |
| 1777904939 | 16.11° C | 56% | 1007.8 hPa | 0 mm | - | 122 W/m² | - |
| 1777904636 | 15.56° C | 56% | 1007.9 hPa | 0 mm | - | 154 W/m² | - |
| 1777904333 | 15.56° C | 57% | 1008 hPa | 0 mm | - | 54 W/m² | - |
| 1777904030 | 15.56° C | 57% | 1008 hPa | 0 mm | - | 50 W/m² | - |
| 1777903727 | 15.56° C | 56% | 1008 hPa | 0 mm | - | 62 W/m² | - |
| 1777903423 | 15° C | 58% | 1008.1 hPa | 0 mm | - | 66 W/m² | - |
| 1777903119 | 14.44° C | 58% | 1008.4 hPa | 0 mm | - | 66 W/m² | - |
| 1777902816 | 14.44° C | 58% | 1008.4 hPa | 0 mm | - | 124 W/m² | - |
| 1777902514 | 13.89° C | 58% | 1008.8 hPa | 0 mm | - | 85 W/m² | - |
| 1777902210 | 13.89° C | 58% | 1008.8 hPa | 0 mm | - | 77 W/m² | - |
| 1777901908 | 13.89° C | 59% | 1008.9 hPa | 0 mm | - | 68 W/m² | - |
| 1777901606 | 13.89° C | 58% | 1008.6 hPa | 0 mm | - | 100 W/m² | - |
| 1777901303 | 13.89° C | 58% | 1008.8 hPa | 0 mm | - | 91 W/m² | - |
| 1777901000 | 13.89° C | 58% | 1008.8 hPa | 0 mm | - | 86 W/m² | - |
| 1777900698 | 13.33° C | 59% | 1008.8 hPa | 0 mm | - | 182 W/m² | - |
| 1777900395 | 13.33° C | 58% | 1008.5 hPa | 0 mm | - | 142 W/m² | - |
| 1777900092 | 12.78° C | 59% | 1008.5 hPa | 0 mm | - | 108 W/m² | - |
| 1777899788 | 12.78° C | 59% | 1008.8 hPa | 0 mm | - | 52 W/m² | - |
| 1777899485 | 12.78° C | 59% | 1008.6 hPa | 0 mm | - | 50 W/m² | - |
| 1777899182 | 12.78° C | 60% | 1008.5 hPa | 0 mm | - | 59 W/m² | - |
* Rain latest hour (hover to see other rain measurements)
** Current wind speed in m/s (hover to see current wind gust speed)